Weather History for Sanford, FL

Change the Weather History Date:

Thursday, January 17, 2013

  Actual Average Record
Temperature  
Mean Temperature 64 °F -  
Max Temperature 78 °F 70 °F 82 °F (1974)
Min Temperature 51 °F 44 °F 27 °F (1959)
Growing Degree Days 14 (Base 50)    
Moisture  
Dew Point 56 °F    
Average Humidity 76    
Maximum Humidity 93    
Minimum Humidity 58    
Precipitation  
Precipitation 0.00 in - - ()
Sea Level Pressure  
Sea Level Pressure 30.03 in    
Wind  
Wind Speed 10 mph (WSW)    
Max Wind Speed 26 mph    
Max Gust Speed 37 mph    
Visibility 10 miles    
Events      
Averages and records for this station are not official NWS values.
T = Trace of Precipitation, MM = Missing Value Source: NWS Daily Summary

Daily Weather History Graph

Daily Weather History Graph

Search for Another Location

Airport:

Trip Planner

Search our weather history database for the weather conditions in past years. The results will help you decide how hot, cold, wet, or windy it might be!

Date:

Astronomy

Jan. 17, 2013 Rise Set
Actual Time 7:18 AM EST 5:51 PM EST
Civil Twilight 6:53 AM EST 6:17 PM EST
Nautical Twilight 6:24 AM EST 6:46 PM EST
Astronomical Twilight 5:56 AM EST 7:14 PM EST
Moon 11:00 AM EST (1/17) No Moon Set
Length of Visible Light 11h 23m
Length of Day
10h 33m
Waxing Crescent, 37% of the Moon is Illuminated
Jan 17
Waxing Crescent
Jan 18
First Quarter
Jan 26
Full
Feb 3
Last Quarter
Feb 10
New

Hourly Weather History & Observations

Time (EST) Temp. Dew Point Humidity Pressure Visibility Wind Dir Wind Speed Gust Speed Precip Events Conditions
12:53 AM 66.9 °F 64.0 °F 90% 30.03 in 10.0 mi South 5.8 mph - N/A   Clear
1:53 AM 66.0 °F 64.0 °F 93% 30.03 in 10.0 mi SSW 3.5 mph - N/A   Clear
2:53 AM 64.9 °F 63.0 °F 93% 30.03 in 10.0 mi WSW 4.6 mph - N/A   Clear
3:53 AM 63.0 °F 61.0 °F 93% 30.02 in 10.0 mi Calm Calm - N/A   Clear
4:53 AM 62.1 °F 60.1 °F 93% 30.02 in 10.0 mi Calm Calm - N/A   Clear
5:53 AM 64.0 °F 61.0 °F 90% 30.02 in 10.0 mi South 4.6 mph - N/A   Mostly Cloudy
6:53 AM 64.0 °F 61.0 °F 90% 30.03 in 10.0 mi South 5.8 mph - N/A   Partly Cloudy
7:53 AM 64.0 °F 62.1 °F 93% 30.03 in 9.0 mi SSE 6.9 mph - N/A   Clear
8:53 AM 68.0 °F 64.9 °F 90% 30.04 in 10.0 mi SSW 8.1 mph - N/A   Clear
9:53 AM 73.0 °F 66.0 °F 79% 30.04 in 10.0 mi SSW 10.4 mph - N/A   Scattered Clouds
10:03 AM 73.4 °F 64.4 °F 73% 30.04 in 10.0 mi SSW 11.5 mph 19.6 mph N/A   Mostly Cloudy
10:12 AM 71.6 °F 64.4 °F 78% 30.04 in 10.0 mi SSW 13.8 mph - N/A   Scattered Clouds
10:53 AM 75.9 °F 64.0 °F 67% 30.02 in 10.0 mi SSW 17.3 mph 20.7 mph N/A   Partly Cloudy
11:53 AM 78.1 °F 62.1 °F 58% 29.99 in 10.0 mi SSW 13.8 mph 23.0 mph N/A   Mostly Cloudy
12:53 PM 75.9 °F 62.1 °F 62% 29.96 in 10.0 mi WSW 18.4 mph 25.3 mph N/A   Overcast
1:45 PM 69.8 °F 60.8 °F 73% 29.96 in 10.0 mi West 21.9 mph 27.6 mph N/A   Mostly Cloudy
1:53 PM 69.1 °F 60.1 °F 73% 29.96 in 10.0 mi West 21.9 mph 29.9 mph N/A   Overcast
2:48 PM 64.4 °F 57.2 °F 77% 29.98 in 10.0 mi West 26.5 mph 34.5 mph N/A   Overcast
2:53 PM 64.0 °F 57.0 °F 78% 29.98 in 10.0 mi West 23.0 mph 34.5 mph N/A   Overcast
3:06 PM 62.6 °F 55.4 °F 77% 29.99 in 10.0 mi WNW 21.9 mph 36.8 mph N/A   Overcast
3:53 PM 61.0 °F 52.0 °F 72% 30.01 in 10.0 mi West 24.2 mph 34.5 mph N/A   Overcast
4:53 PM 60.1 °F 50.0 °F 69% 30.03 in 10.0 mi West 21.9 mph 28.8 mph N/A   Overcast
5:20 PM 59.0 °F 48.2 °F 67% 30.04 in 10.0 mi West 16.1 mph - N/A   Overcast
5:53 PM 60.1 °F 46.9 °F 62% 30.04 in 10.0 mi West 15.0 mph 24.2 mph N/A   Overcast
6:53 PM 57.9 °F 45.0 °F 62% 30.06 in 10.0 mi West 17.3 mph 24.2 mph N/A   Mostly Cloudy
7:53 PM 55.9 °F 44.1 °F 64% 30.07 in 10.0 mi West 12.7 mph - N/A   Clear
8:53 PM 55.0 °F 45.0 °F 69% 30.09 in 10.0 mi West 12.7 mph - N/A   Scattered Clouds
9:53 PM 55.0 °F 44.1 °F 67% 30.10 in 10.0 mi West 13.8 mph - N/A   Clear
10:53 PM 53.1 °F 44.1 °F 71% 30.11 in 10.0 mi WNW 15.0 mph 21.9 mph N/A   Clear
11:40 PM 51.8 °F 42.8 °F 71% 30.12 in 10.0 mi NW 17.3 mph 23.0 mph 0.00 in   Mostly Cloudy
11:53 PM 51.1 °F 42.1 °F 71% 30.12 in 10.0 mi WNW 17.3 mph 25.3 mph 0.00 in   Mostly Cloudy